Location: Unspecified
(0.0000°N, 0.0000°E)
Time: 08:41:46
(UTC+00:00)

ISS - Pass Details

Date: 17 September 2021
Orbit: 419 x 423 km, 51.6° (Epoch: 18 September)

Event Time Altitude Azimuth Distance (km) Brightness Sun altitude
Exits shadow 04:40:09 36° 335° (NNW) 685 -2.9 -18.6°
Maximum altitude 04:41:23 76° 54° (NE) 435 -3.7 -18.3°
Drops below altitude 10° 04:44:45 10° 141° (SE) 1,504 -0.5 -17.4°
Sets 04:46:52 0° 142° (SE) 2,370 0.6 -16.9°
